Weather History for Rotterdam, Netherlands

Change the Weather History Date:

Friday, November 25, 2011

  Actual Average Record
Temperature  
Mean Temperature 50 °F -  
Max Temperature 54 °F 43 °F 64 °F (2006)
Min Temperature 46 °F 35 °F 24 °F (2004)
Degree Days  
Heating Degree Days 15    
Moisture  
Dew Point 45 °F    
Average Humidity 82    
Maximum Humidity 94    
Minimum Humidity 61    
Precipitation  
Precipitation 0.00 in - - ()
Sea Level Pressure  
Sea Level Pressure 30.22 in    
Wind  
Wind Speed 14 mph ()    
Max Wind Speed 22 mph    
Max Gust Speed 26 mph    
Visibility 5.5 miles    
Events Rain    
Averages and records for this station are not official NWS values.
T = Trace of Precipitation, MM = Missing Value Source: Averaged Metar Reports

Daily Weather History Graph

Daily Weather History Graph

Search for Another Location

Airport:

Trip Planner

Search our weather history database for the weather conditions in past years. The results will help you decide how hot, cold, wet, or windy it might be!

Date:

Astronomy

Nov. 25, 2011 Rise Set
Actual Time 8:17 AM CET 4:39 PM CET
Civil Twilight 7:39 AM CET 5:18 PM CET
Nautical Twilight 6:57 AM CET 6:00 PM CET
Astronomical Twilight 6:16 AM CET 6:40 PM CET
Moon 8:35 AM CET (11/25) 4:44 PM CET (11/25)
Length of Visible Light 9h 39m
Length of Day
8h 21m
New Moon, 0% of the Moon is Illuminated
Nov 25
New Moon
Dec 2
First Quarter
Dec 10
Full
Dec 18
Last Quarter
Dec 24
New

Hourly Weather History & Observations

Time (CET) Temp. Windchill Dew Point Humidity Pressure Visibility Wind Dir Wind Speed Gust Speed Precip Events Conditions
12:25 AM 48.2 °F - 44.6 °F 87% 30.27 in 5.0 mi SW 17.3 mph - N/A   Overcast
12:55 AM 48.2 °F - 44.6 °F 87% 30.27 in 5.0 mi SW 13.8 mph - N/A   Overcast
1:25 AM 48.2 °F - 44.6 °F 87% 30.27 in 5.0 mi SW 16.1 mph - N/A   Overcast
1:55 AM 50.0 °F - 44.6 °F 82% 30.24 in 4.3 mi SSW 16.1 mph - N/A   Overcast
2:25 AM 50.0 °F - 44.6 °F 82% 30.24 in 5.0 mi SW 18.4 mph - N/A   Overcast
2:55 AM 50.0 °F - 44.6 °F 82% 30.24 in 5.0 mi SSW 19.6 mph - N/A   Overcast
3:25 AM 50.0 °F - 44.6 °F 82% 30.24 in 4.3 mi SSW 16.1 mph - N/A   Overcast
3:55 AM 48.2 °F - 44.6 °F 87% 30.24 in 4.3 mi SSW 16.1 mph - N/A   Overcast
4:00 AM 49 °F - 44 °F 79% 30.24 in 4 mi SSW 15.7 mph - -   Mist
4:25 AM 48.2 °F - 44.6 °F 87% 30.21 in 4.3 mi SSW 16.1 mph - N/A   Overcast
4:55 AM 48.2 °F - 44.6 °F 87% 30.21 in 3.7 mi SSW 11.5 mph - N/A   Overcast
5:25 AM 48.2 °F - 44.6 °F 87% 30.18 in 3.7 mi SSW 15.0 mph - N/A   Scattered Clouds
5:55 AM 46.4 °F 40.4 °F 44.6 °F 93% 30.18 in 3.1 mi SSW 13.8 mph - N/A   Partly Cloudy
6:25 AM 48.2 °F - 44.6 °F 87% 30.18 in 3.1 mi SSW 17.3 mph - N/A   Partly Cloudy
6:55 AM 48.2 °F - 44.6 °F 87% 30.18 in 3.1 mi SSW 17.3 mph - N/A   Mostly Cloudy
7:00 AM 47 °F - 45 °F 89% 30.19 in 3 mi South 17.9 mph - -   Mist
7:25 AM 46.4 °F 39.8 °F 44.6 °F 93% 30.18 in 3.1 mi SSW 16.1 mph - N/A   Partly Cloudy
7:55 AM 48.2 °F - 46.4 °F 93% 30.18 in 3.1 mi SSW 16.1 mph - N/A   Mostly Cloudy
8:25 AM 48.2 °F - 46.4 °F 93% 30.18 in 3.1 mi SSW 18.4 mph - N/A   Overcast
8:55 AM 48.2 °F - 46.4 °F 93% 30.18 in 3.1 mi SSW 19.6 mph - N/A   Overcast
9:25 AM 50.0 °F - 46.4 °F 87% 30.18 in 3.7 mi SSW 21.9 mph - N/A   Overcast
9:55 AM 50.0 °F - 46.4 °F 87% 30.18 in 4.3 mi SSW 19.6 mph - N/A   Overcast
10:00 AM 50 °F - 47 °F 85% 30.19 in 4 mi SSW 20.1 mph - -   Mist
10:25 AM 50.0 °F - 46.4 °F 87% 30.18 in 3.7 mi SSW 18.4 mph - N/A   Overcast
10:55 AM 50.0 °F - 48.2 °F 94% 30.18 in 2.8 mi SSW 19.6 mph - N/A Rain Light Rain
11:25 AM 50.0 °F - 48.2 °F 94% 30.18 in 4.3 mi SSW 20.7 mph - N/A Rain Light Rain
11:55 AM 51.8 °F - 48.2 °F 88% 30.18 in 4.3 mi SW 18.4 mph - N/A   Overcast
12:25 PM 50.0 °F - 48.2 °F 94% 30.18 in 4.3 mi SW 18.4 mph - N/A   Overcast
12:55 PM 51.8 °F - 48.2 °F 88% 30.15 in 4.3 mi SW 17.3 mph - N/A   Overcast
1:00 PM 52 °F - 49 °F 85% 30.18 in 5 mi SW 15.7 mph - -   Mist
1:25 PM 51.8 °F - 48.2 °F 88% 30.18 in 5.0 mi SW 16.1 mph - N/A   Overcast
1:55 PM 53.6 °F - 50.0 °F 88% 30.18 in 6.2 mi WSW 15.0 mph - N/A   Overcast
2:25 PM 53.6 °F - 50.0 °F 88% 30.18 in 6.2 mi West 10.4 mph - N/A   Mostly Cloudy
2:55 PM 51.8 °F - 48.2 °F 88% 30.18 in 6.2 mi West 10.4 mph - N/A   Scattered Clouds
3:25 PM 51.8 °F - 46.4 °F 82% 30.18 in 6.2 mi West 9.2 mph - N/A   Mostly Cloudy
3:55 PM 51.8 °F - 46.4 °F 82% 30.21 in 6.2 mi West 15.0 mph - N/A   Scattered Clouds
4:00 PM 52 °F - 46 °F 72% 30.22 in 17 mi West 13.4 mph - -   Scattered Clouds
4:25 PM 51.8 °F - 44.6 °F 76% 30.21 in 6.2 mi West 12.7 mph - N/A   Unknown
4:55 PM 50.0 °F - 42.8 °F 76% 30.21 in 6.2 mi West 10.4 mph - N/A   Mostly Cloudy
5:25 PM 50.0 °F - 42.8 °F 76% 30.21 in 6.2 mi WSW 10.4 mph - N/A   Partly Cloudy
5:55 PM 50.0 °F - 41.0 °F 71% 30.24 in 6.2 mi West 13.8 mph - N/A   Unknown
6:25 PM 50.0 °F - 41.0 °F 71% 30.24 in 6.2 mi WSW 10.4 mph - N/A   Unknown
6:55 PM 48.2 °F - 42.8 °F 82% 30.24 in 6.2 mi WSW 9.2 mph - N/A   Unknown
7:00 PM 49 °F - 41 °F 65% 30.26 in 16 mi WSW 8.9 mph - -  
7:25 PM 50.0 °F - 39.2 °F 66% 30.27 in 6.2 mi West 10.4 mph - N/A   Unknown
7:55 PM 50.0 °F - 39.2 °F 66% 30.27 in 6.2 mi West 11.5 mph - N/A   Unknown
8:25 PM 50.0 °F - 41.0 °F 71% 30.27 in 6.2 mi West 11.5 mph - N/A   Unknown
8:55 PM 50.0 °F - 41.0 °F 71% 30.27 in 6.2 mi WSW 10.4 mph - N/A   Mostly Cloudy
9:25 PM 51.8 °F - 41.0 °F 67% 30.27 in 6.2 mi West 15.0 mph - N/A   Scattered Clouds
9:55 PM 51.8 °F - 41.0 °F 67% 30.27 in 6.2 mi West 15.0 mph 26.5 mph N/A   Partly Cloudy
10:00 PM 51 °F - 42 °F 61% 30.30 in 13 mi West 13.4 mph - -   Scattered Clouds
10:25 PM 48.2 °F - 41.0 °F 76% 30.30 in 6.2 mi WNW 10.4 mph - N/A   Partly Cloudy
10:55 PM 50.0 °F - 41.0 °F 71% 30.30 in 6.2 mi West 11.5 mph 25.3 mph N/A   Mostly Cloudy
11:25 PM 48.2 °F - 37.4 °F 66% 30.30 in 6.2 mi WNW 11.5 mph - N/A   Unknown
11:55 PM 48.2 °F - 39.2 °F 71% 30.30 in 6.2 mi West 8.1 mph - N/A   Mostly Cloudy